Regional Weather Roundup
Issued by NWS

Home | Current Version | Previous Version | Graphics & Text | Print | Product List | Glossary On
Versions: 1 2 3 4 5 6 7 8 9 10 11 12 13 14 15 16 17 18 19 20 21 22 23 24 25 26 27 28 29 30 31 32 33 34 35 36 37 38 39 40 41 42 43 44 45 46 47 48 49 50
000
ASUS43 KLSX 221559
RWRMO

WEATHER SUMMARY FOR MISSOURI
NATIONAL WEATHER SERVICE SPRINGFIELD MO
1100 AM CDT MON SEP 22 2014

NOTE: "FAIR" INDICATES FEW OR NO CLOUDS BELOW 12,000 FEET WITH NO
       SIGNIFICANT WEATHER AND/OR OBSTRUCTIONS TO VISIBILITY.
       CURRENT SKY AND/OR WEATHER CONDITIONS ARE NOT AVAILABLE FOR
       CHILLICOTHE AND FARMINGTON.

MOZ001>031-035>038-043-044-053-054-221700-
...NORTHERN AND WESTERN MISSOURI...

CITY           SKY/WX    TMP DP  RH WIND       PRES   REMARKS
KANSAS CTY INT MOSUNNY   66  51  58 VRB5      30.33F
KANSAS C DTWN  SUNNY     67  51  56 CALM      30.32F
LEE`S SUMMIT   SUNNY     67  49  52 VRB3      30.34S
ST JOSEPH      SUNNY     65  53  65 CALM      30.33F
KIRKSVILLE     SUNNY     64  49  57 CALM      30.34S

$$
MOZ066>068-077>081-088>096-101>105-221700-
...SOUTHWEST MISSOURI...

CITY           SKY/WX    TMP DP  RH WIND       PRES   REMARKS
SPRINGFIELD    SUNNY     66  50  56 VRB7      30.31S
JOPLIN         SUNNY     66  51  58 VRB6      30.32S

$$
MOZ032>034-039>042-045>050-055>058-069>072-221700-
...CENTRAL MISSOURI...

CITY           SKY/WX    TMP DP  RH WIND       PRES   REMARKS
COLUMBIA       SUNNY     66  49  54 NE3       30.32F
JEFFERSON CITY SUNNY     67  47  48 E6        30.32F
ROLLA          MOSUNNY   65  49  56 N8        30.31S
SEDALIA        SUNNY     66  49  54 E7        30.33S
OSAGE BEACH    SUNNY     66  48  52 NE8       30.32S

$$
MOZ051-052-059>065-221700-
...EAST CENTRAL MISSOURI...

CITY           SKY/WX    TMP DP  RH WIND       PRES   REMARKS
ST LOUIS INTL  MOSUNNY   67  50  54 NW3       30.32R
SPIRIT OF STL  MOSUNNY   65  51  60 CALM      30.31S
ST CHARLES     SUNNY     66  50  56 NW6       30.31S

$$
MOZ072>076-082>087-097>100-106>115-221700-
...SOUTH CENTRAL AND SOUTHEAST MISSOURI...

CITY           SKY/WX    TMP DP  RH WIND       PRES   REMARKS
CAPE GIRARDEAU SUNNY     67  51  56 E12       30.27S
FARMINGTON     MOSUNNY   64  52  63 NE5       30.32R
POPLAR BLUFF   SUNNY     69  48  47 NE9       30.26S
WEST PLAINS    MOSUNNY   66  50  56 E5        30.31S

$$


USA.gov is the U.S. government's official web portal to all federal, state and local government web resources and services.